www.pogodaiklimat.ru

Погода и климат >> Архив погоды >> Россия >> Чукотка >> Майская


ПОГОДА в Майской

  • Прогноз погоды в Майской
  • Монитор погоды в Майской

АРХИВ ПОГОДЫ в Майской

Время (UTC), дата Ветер
(напр.,м/с)
 
Видим.   Явления Облачность Т
(С)
Тd
(С)
f
(%)
Тe
(С)
Тes
(С)
Комфортность P
(гПа)
Po
(гПа)
Тmin
(С)
Tmax
(С)
R
(мм)
R24
(мм)
S
(см)
15 9.09 СЗ 1 н/о н/о +1.4 +0.8 96 -1 -1 1005.8 963.0
18 9.09 ЮВ 8-10
{10}
н/о н/о +2.8 +1.8 93 -4 -4 1004.2 961.7
00 10.09 ЮВ 4
{10}
н/о н/о +11.9 +2.5 53 +10 +10 1002.1 961.0
03 10.09 ЮЗ 5 н/о н/о +14.9 -1.5 32 +14 +14 1001.1 960.4
06 10.09 Ю 4 н/о н/о +11.8 +0.4 45 +10 +10 1001.2 960.2
09 10.09 ЮВ 6 н/о н/о +7.8 +0.8 61 +4 +4 1002.2 960.5
12 10.09 ЮВ 6 н/о н/о +7.6 +0.2 59 +4 +4 1002.4 960.7
15 10.09 В 4 н/о н/о +7.2 -0.1 60 +4 +4 1002.3 960.5
18 10.09 ЮВ 2 н/о н/о +6.6 +0.6 65 +5 +5 1002.1 960.2
21 10.09 В 4 н/о н/о +8.5 +1.0 59 +6 +6 1001.4 959.8
00 11.09 ЮВ 2 н/о н/о +12.4 +0.6 44 +12 +12 1000.0 959.1
03 11.09 СВ 2 н/о н/о +13.4 -2.7 33 +13 +13 998.9 958.2
09 11.09 С 3 н/о н/о +6.0 +1.9 75 +3 +3 999.8 958.0
12 11.09 С 3 н/о н/о +2.6 +0.4 85 -2 -2 1001.2 958.8
15 11.09 С 7
{11}
н/о н/о +1.5 +1.1 97 -5 -5 1002.1 959.5
00 12.09 С 10-12
{13}
н/о н/о +1.6 +1.1 96 -6 -6 1004.4 961.7
03 12.09 С 10-13
{14}
н/о н/о +0.5 -0.3 94 -8 -8 1005.3 962.4
09 12.09 С 9-12
{12}
н/о н/о -0.3 -0.6 98 -9 -9 1007.9 964.8
12 12.09 С 8-10
{12}
н/о н/о -0.5 -0.7 99 -8 -8 1008.9 965.7
15 12.09 С 8-10
{11}
н/о н/о -0.6 -0.9 98 -9 -9 1009.9 966.6
18 12.09 С 6
{11}
н/о н/о -1.0 -1.3 98 -8 -8 1011.4 968.0
21 12.09 С 6
{10}
н/о н/о -0.8 -1.1 98 -8 -8 1012.4 969.0
00 13.09 С 8-10
{10}
н/о н/о -0.5 -0.8 98 -8 -8 1013.2 969.8
03 13.09 С 7
{11}
н/о н/о -0.9 -1.2 98 -8 -8 1014.3 970.8
06 13.09 СВ 7 н/о н/о -0.9 -1.4 96 -8 -8 1015.1 971.6
09 13.09 СВ 5 н/о н/о -1.4 -2.3 94 -8 -8 1016.2 972.5
12 13.09 СВ 5 н/о н/о -1.5 -2.0 96 -8 -8 1016.5 972.8
15 13.09 СВ 4 н/о н/о -1.3 -1.9 96 -7 -7 1016.5 972.9
18 13.09 В 4 н/о н/о -1.9 -2.6 95 -8 -8 1017.0 973.2
21 13.09 В 6 н/о н/о -0.1 -1.9 88 -7 -7 1015.9 972.4
03 14.09 ЮВ 5 н/о н/о +4.3 +0.2 75 -0 -0 1014.3 971.6
06 14.09 ЮВ 11-12
{12}
н/о н/о +3.1 -0.5 77 -4 -4 1013.1 970.2
09 14.09 ЮВ 10-11
{12}
н/о н/о +1.7 -1.0 82 -6 -6 1013.5 970.4
12 14.09 В 10-11
{11}
н/о н/о +1.6 -1.0 83 -6 -6 1013.2 970.1
15 14.09 ЮВ 8
{12}
н/о н/о +2.4 -0.9 79 -4 -4 1012.5 969.6
18 14.09 ЮВ 9-11
{11}
н/о н/о +2.1 -1.2 79 -5 -5 1012.1 969.1
21 14.09 ЮВ 8-11
{11}
н/о н/о +5.1 +0.5 72 -1 -1 1010.7 968.3
00 15.09 Ю 8-10
{14}
н/о н/о +8.4 +0.9 59 +4 +4 1009.5 967.6
03 15.09 Ю 6
{10}
н/о н/о +9.4 +0.5 54 +6 +6 1008.5 966.8
06 15.09 ЮВ 5 н/о н/о +7.7 +1.0 63 +4 +4 1008.6 966.6
09 15.09 В 6 н/о н/о +3.6 -0.1 77 -2 -2 1009.7 967.0

 

Местоположение метеостанции Майская (Чукотка, Россия): широта 68.57 долгота 173.48 высота над уровнем моря 351 м.

В архиве по умолчанию представлена погода в Майской за последнюю неделю. Архивные данные за месяц целиком и за предыдущие месяцы, начиная с января 2011 года, Вы можете получить, выбрав интересующий диапазон дат из раскрывающегося списка и нажав кнопку "Ввод!".


*Определитесь, кто Вы:
робот инопланетянин человек

Внимание! Время в таблицах - всемирное. Для получения местного времени необходимо прибавить поправку, которая равна 12 ч.

Смотрите также архив погоды в соседних городах и на ближайших метеорологических станциях:

Погода в Паляваам-Глубокой (Чукотка, Россия) (66 км)
Погода в Комсомольской (Чукотка, Россия) (68 км)
Погода в Чауне (Чукотка, Россия) (117 км)
Погода на 21 км (Чукотка, Россия) (158 км)
Погода на Мысе Биллингс (Чукотка, Россия) (170 км)
Погода в Певеке (Чукотка, Россия) (181 км)
Погода в Валькаркае (Чукотка, Россия) (196 км)
Погода в Эньмувееме (Чукотка, Россия) (244 км)
Погода на Айон Острове (Чукотка, Россия) (267 км)
Погода в Илирнее (Чукотка, Россия) (276 км)

Пояснения к столбцам:

Ветер - указаны скорость ветра в м/с - средняя за 10 мин, порывы в срок и между сроками (в фигурных скобках) и направление, откуда дует ветер: С - северный, СВ - северо-восточный, В - восточный, ЮВ - юго-восточный, Ю - южный, ЮЗ - юго-западный, З - западный, СЗ - северо-западный.
Видимость - горизонтальная дальность видимости в метрах или километрах. При видимости от 1 до 10 км при отсутствии осадков обычно наблюдается дымка, при ухудшении видимости до 1 км и менее - туман. В сухую погоду видимость может ухудшаться дымом, пылью или мглою.
Явления - указаны атмосферные явления, наблюдавшиеся в срок или в последний час перед сроком; фигурными скобками обозначены явления, наблюдавшиеся между сроками (за 1-3 часа до срока); квадратными скобками обозначены град или гололедные отложения с указанием их диаметра в мм.
Облачность - указаны через наклонную черту общая и нижняя облачность в баллах и высота нижней границы облаков в метрах; квадратными скобками обозначены формы облаков: Ci - перистые, Cs - перисто-слоистые, Cc - перисто-кучевые, Ac - высококучевые, As - высокослоистые, Sc - слоисто-кучевые, Ns - слоисто-дождевые, Cu - кучевые, Cb - кучево-дождевые. Подробнее классификацию облаков см. в Атласе облаков (PDF).
T - Температура воздуха - температура, измеренная на высоте 2 м над землей.
Td - Температура точки росы - температура, при понижении до которой содержащийся в воздухе водяной пар достигнет насыщения.
f - Относительная влажность воздуха - влажноcть воздуха, измеренная на высоте 2 м над землей.
Te - Эффективная температура - температура, которую ощущает одетый по сезону человек в тени. Характеристика душности погоды. При расчете учитывается влияние влажности воздуха и скорости ветра на теплоощущения человека.
Tes - Эффективная температура на солнце - температура, которую ощущает человек, с поправкой на солнечный нагрев. Характеристика знойности погоды. Зависит от высоты солнца над горизонтом, облачности и скорости ветра. Ночью, в пасмурную погоду, а также при ветре 12 м/с и более поправка равна нулю.
P - Атмосферное давление - приведенное к уровню моря атмосферное давление.
Po - Атмосферное давление - измеренное на уровне метеостанции атмосферное давление.
Tmin - Минимальная температура - минимум температуры воздуха на высоте 2 м над землей.
Tmax - Максимальная температура - максимум температуры воздуха на высоте 2 м над землей.
R - Количество осадков - Количество выпавших осадков за период времени, мм. При наведении курсора мыши на число - период времени, за который выпало указанное количество осадков.
R24 - Количество осадков - Количество выпавших осадков за 24 часа, мм.
S - Снежный покров - Высота снежного покрова, см. При наведении курсора мыши на число - состояние снежного покрова и степень покрытия местности в баллах.